When you browse on this site, cookies collect data to enhance your experience and personalize the content and advertising you see.
Visit our Privacy Policy to learn more. By continuing to use the site, you agree to this use of cookies and data.
  • In Austria
  • List of Countries
  • For 7 days
  • Water Temperature
  • Satellite Maps
  • Weather Map
  • News
  • Weather Widgets
  • user-avatar
    Login

    Hourly Weather Ali Bayramli

    Today, 22 May, Wednesday

    Time Temperature Precipitation Wind Pressure Humidity
    00:00 +18°C° 0 mm 2 mps 764 mmHg 48%
    01:00 +19°C° 0 mm 1 mps 764 mmHg 50%
    02:00 +18°C° 0 mm 1 mps 763 mmHg 52%
    03:00 +18°C° 0 mm 1 mps 763 mmHg 54%
    04:00 +19°C° 0 mm 1 mps 763 mmHg 52%
    05:00 +19°C° 0 mm 1 mps 763 mmHg 50%
    06:00 +20°C° 0 mm 1 mps 763 mmHg 48%
    07:00 +21°C° 0 mm 1 mps 763 mmHg 44%
    08:00 +22°C° 0 mm 1 mps 762 mmHg 41%
    09:00 +24°C° 0 mm 1 mps 762 mmHg 39%
    10:00 +25°C° 0 mm 2 mps 761 mmHg 36%
    11:00 +26°C° 0 mm 3 mps 761 mmHg 34%
    12:00 +27°C° 0 mm 3 mps 761 mmHg 32%
    13:00 +27°C° 0 mm 4 mps 760 mmHg 31%
    14:00 +28°C° 0 mm 5 mps 760 mmHg 31%
    15:00 +28°C° 0 mm 6 mps 759 mmHg 30%
    16:00 +27°C° 0 mm 5 mps 759 mmHg 32%
    17:00 +26°C° 0 mm 5 mps 759 mmHg 35%
    18:00 +25°C° 0 mm 5 mps 759 mmHg 37%
    19:00 +23°C° 0 mm 5 mps 759 mmHg 43%
    20:00 +22°C° 0 mm 4 mps 759 mmHg 48%
    21:00 +21°C° 0 mm 3 mps 759 mmHg 54%
    22:00 +21°C° 0 mm 3 mps 758 mmHg 56%
    23:00 +21°C° 0 mm 3 mps 758 mmHg 59%

    Tomorrow, 23 May, Thursday

    Time Temperature Precipitation Wind Pressure Humidity
    00:00 +20°C° 0 mm 3 mps 758 mmHg 61%
    01:00 +20°C° 0 mm 2 mps 758 mmHg 62%
    02:00 +20°C° 0 mm 2 mps 758 mmHg 63%
    03:00 +21°C° 0 mm 1 mps 758 mmHg 63%
    04:00 +20°C° 0 mm 2 mps 758 mmHg 62%
    05:00 +20°C° 0 mm 2 mps 758 mmHg 61%
    06:00 +20°C° 0 mm 2 mps 758 mmHg 60%
    07:00 +22°C° 0 mm 3 mps 758 mmHg 53%
    08:00 +25°C° 0 mm 3 mps 758 mmHg 45%
    09:00 +27°C° 0 mm 3 mps 758 mmHg 38%
    10:00 +28°C° 0 mm 3 mps 757 mmHg 34%
    11:00 +29°C° 0 mm 3 mps 757 mmHg 29%
    12:00 +31°C° 0 mm 3 mps 757 mmHg 25%
    13:00 +31°C° 0 mm 3 mps 756 mmHg 26%
    14:00 +33°C° 0 mm 3 mps 756 mmHg 26%
    15:00 +33°C° 0 mm 3 mps 756 mmHg 27%
    16:00 +32°C° 0 mm 4 mps 756 mmHg 33%
    17:00 +29°C° 0 mm 5 mps 756 mmHg 39%
    18:00 +28°C° 0 mm 5 mps 756 mmHg 45%
    19:00 +27°C° 0.1 mm 5 mps 756 mmHg 49%
    20:00 +26°C° 0.1 mm 4 mps 757 mmHg 52%
    21:00 +25°C° 0.1 mm 3 mps 757 mmHg 56%
    22:00 +24°C° 0.1 mm 3 mps 757 mmHg 57%
    23:00 +24°C° 0.1 mm 3 mps 757 mmHg 58%

    Day after tomorrow, 24 May, Friday

    Time Temperature Precipitation Wind Pressure Humidity
    00:00 +24°C° 0.1 mm 3 mps 757 mmHg 59%
    01:00 +23°C° 0 mm 2 mps 757 mmHg 60%
    02:00 +23°C° 0 mm 2 mps 757 mmHg 61%
    03:00 +22°C° 0 mm 1 mps 757 mmHg 62%
    04:00 +23°C° 0 mm 1 mps 757 mmHg 60%
    05:00 +23°C° 0 mm 1 mps 757 mmHg 57%
    06:00 +23°C° 0 mm 1 mps 758 mmHg 55%
    07:00 +24°C° 0 mm 1 mps 758 mmHg 52%
    08:00 +26°C° 0 mm 1 mps 758 mmHg 48%
    09:00 +27°C° 0 mm 1 mps 758 mmHg 45%
    10:00 +28°C° 0 mm 2 mps 758 mmHg 42%
    11:00 +29°C° 0 mm 2 mps 758 mmHg 40%
    12:00 +30°C° 0 mm 3 mps 758 mmHg 37%
    13:00 +30°C° 0 mm 4 mps 758 mmHg 37%
    14:00 +30°C° 0 mm 5 mps 758 mmHg 37%
    15:00 +29°C° 0 mm 7 mps 757 mmHg 37%
    16:00 +28°C° 0 mm 6 mps 757 mmHg 40%
    17:00 +27°C° 0 mm 6 mps 758 mmHg 43%
    18:00 +26°C° 0 mm 6 mps 758 mmHg 46%
    19:00 +25°C° 0 mm 5 mps 758 mmHg 48%
    20:00 +25°C° 0 mm 4 mps 759 mmHg 51%
    21:00 +24°C° 0 mm 3 mps 759 mmHg 54%
    22:00 +24°C° 0.1 mm 2 mps 759 mmHg 56%
    23:00 +24°C° 0.1 mm 2 mps 759 mmHg 58%

    25 May, Saturday

    Time Temperature Precipitation Wind Pressure Humidity
    00:00 +24°C° 0.1 mm 1 mps 759 mmHg 59%
    01:00 +23°C° 0 mm 1 mps 759 mmHg 62%
    02:00 +23°C° 0 mm 1 mps 759 mmHg 64%
    03:00 +22°C° 0 mm 1 mps 759 mmHg 66%
    04:00 +23°C° 0 mm 1 mps 759 mmHg 65%
    05:00 +23°C° 0 mm 1 mps 759 mmHg 63%
    06:00 +23°C° 0 mm 1 mps 759 mmHg 62%
    07:00 +25°C° 0 mm 2 mps 759 mmHg 58%
    08:00 +26°C° 0 mm 3 mps 758 mmHg 54%
    09:00 +28°C° 0 mm 3 mps 758 mmHg 50%
    10:00 +29°C° 0 mm 4 mps 758 mmHg 46%
    11:00 +30°C° 0 mm 4 mps 757 mmHg 43%
    12:00 +33°C° 0 mm 4 mps 757 mmHg 40%
    13:00 +33°C° 0 mm 4 mps 756 mmHg 39%
    14:00 +33°C° 0 mm 4 mps 755 mmHg 38%
    15:00 +34°C° 0 mm 4 mps 755 mmHg 36%
    16:00 +32°C° 0 mm 5 mps 755 mmHg 40%
    17:00 +30°C° 0 mm 6 mps 755 mmHg 44%
    18:00 +29°C° 0 mm 6 mps 754 mmHg 48%
    19:00 +27°C° 0.2 mm 5 mps 755 mmHg 52%
    20:00 +26°C° 0.2 mm 5 mps 755 mmHg 56%
    21:00 +25°C° 0.2 mm 4 mps 755 mmHg 60%
    22:00 +25°C° 0.1 mm 3 mps 755 mmHg 63%
    23:00 +25°C° 0.1 mm 2 mps 755 mmHg 65%

    26 May, Sunday

    Time Temperature Precipitation Wind Pressure Humidity
    00:00 +24°C° 0.1 mm 1 mps 754 mmHg 68%
    01:00 +24°C° 0 mm 1 mps 754 mmHg 68%
    02:00 +24°C° 0 mm 1 mps 754 mmHg 67%
    03:00 +24°C° 0 mm 1 mps 754 mmHg 67%
    04:00 +24°C° 0 mm 2 mps 754 mmHg 65%
    05:00 +25°C° 0 mm 3 mps 755 mmHg 64%
    06:00 +25°C° 0 mm 5 mps 755 mmHg 62%
    07:00 +27°C° 0 mm 5 mps 755 mmHg 51%
    08:00 +30°C° 0 mm 5 mps 755 mmHg 40%
    09:00 +33°C° 0 mm 5 mps 755 mmHg 29%
    10:00 +34°C° 0 mm 4 mps 755 mmHg 27%
    11:00 +35°C° 0 mm 4 mps 755 mmHg 26%
    12:00 +37°C° 0 mm 3 mps 755 mmHg 24%
    13:00 +36°C° 0 mm 4 mps 755 mmHg 27%
    14:00 +36°C° 0 mm 6 mps 755 mmHg 30%
    15:00 +36°C° 0 mm 7 mps 755 mmHg 33%
    16:00 +34°C° 0.1 mm 7 mps 755 mmHg 36%
    17:00 +33°C° 0.1 mm 6 mps 756 mmHg 39%
    18:00 +32°C° 0.1 mm 6 mps 756 mmHg 42%
    19:00 +30°C° 0.1 mm 5 mps 756 mmHg 45%
    20:00 +29°C° 0.1 mm 5 mps 757 mmHg 48%
    21:00 +28°C° 0.1 mm 4 mps 757 mmHg 52%
    22:00 +27°C° 0.1 mm 3 mps 757 mmHg 55%
    23:00 +27°C° 0.1 mm 3 mps 757 mmHg 58%

    27 May, Monday

    Time Temperature Precipitation Wind Pressure Humidity
    00:00 +26°C° 0.1 mm 2 mps 757 mmHg 61%
    01:00 +25°C° 0.2 mm 3 mps 757 mmHg 66%
    02:00 +24°C° 0.2 mm 3 mps 757 mmHg 71%
    03:00 +22°C° 0.2 mm 4 mps 757 mmHg 75%
    04:00 +24°C° 0.1 mm 3 mps 758 mmHg 74%
    05:00 +24°C° 0.1 mm 2 mps 758 mmHg 72%
    06:00 +24°C° 0.1 mm 2 mps 759 mmHg 70%
    07:00 +26°C° 0 mm 2 mps 759 mmHg 62%
    08:00 +28°C° 0 mm 1 mps 759 mmHg 54%
    09:00 +29°C° 0 mm 1 mps 759 mmHg 46%
    10:00 +31°C° 0 mm 2 mps 759 mmHg 41%
    11:00 +32°C° 0 mm 2 mps 759 mmHg 36%
    12:00 +34°C° 0 mm 3 mps 759 mmHg 31%
    13:00 +35°C° 0 mm 4 mps 759 mmHg 30%
    14:00 +35°C° 0 mm 6 mps 759 mmHg 29%
    15:00 +35°C° 0 mm 7 mps 759 mmHg 28%
    16:00 +34°C° 0 mm 8 mps 759 mmHg 30%
    17:00 +33°C° 0 mm 8 mps 760 mmHg 31%
    18:00 +32°C° 0 mm 9 mps 760 mmHg 33%
    19:00 +31°C° 0 mm 8 mps 760 mmHg 35%
    20:00 +29°C° 0 mm 7 mps 761 mmHg 37%
    21:00 +28°C° 0 mm 6 mps 761 mmHg 39%
    22:00 +27°C° 0 mm 5 mps 761 mmHg 42%
    23:00 +27°C° 0 mm 4 mps 761 mmHg 44%
    Show more